Location: Newark
(43.0000°N, 1.6781°W)
Time: 05:16:32
(UTC+00:00)

Explorer 7 - Pass Details

Date: 23 April 2021
Orbit: 484 x 677 km, 50.3° (Epoch: 07 May)

Event Time Altitude Azimuth Distance (km) Brightness Sun altitude
Rises 00:02:49 0° 300° (WNW) 2,783 10.8 -34.5°
Enters shadow 00:04:11 - 302° (WNW) 2,246 10.3 -34.5°
Reaches altitude 10° 00:05:03 10° 303° (WNW) 1,915 - -34.5°
Maximum altitude 00:09:25 65° 26° (NNE) 676 - -34.5°
Drops below altitude 10° 00:14:04 10° 109° (ESE) 2,026 - -34.4°
Sets 00:16:28 0° 112° (ESE) 2,959 - -34.4°
